Showing default

UKUBE 1, 40074

Orbit data source: Space-Track

UKUBE 1, 40074 is a payload satellite owned by UKSA (UK) in SSO that was launched on Tue, 08 Jul 2014 UTC via a SOYUZ-2-1B launch vehicle from the Tyuratam Missile And Space Complex (TTMTR). Payload-class satellites include a variety of spacecraft equipped with specific instruments for various scientific and technological missions. These include communications satellites like Starlink; space stations such as the ISS; scientific satellites like the Hubble; Earth observation satellites from companies like Planet Labs, Umbra, and HawkEye 360; GPS; miniature CubeSats for education and research; and military/defense satellites.

Loading next visibility...
Identifier
40074, 2014-037F
Orbit
SSO
Last TLE update
13 hours ago
Origin
Manufacturer
ClydeSpace
Mission
Operational Commercial Technology
Bus & Motor
CUBESAT 3U, Unknown motor
Mass
4 kg wet, 4 kg dry
Launch date (UTC)
2014-07-08 (11 years ago)
Launch vehicle
SOYUZ-2-1B
Launch site
Tyuratam Missile And Space Complex (TTMTR)
Object type
Payload
Rocket body
Debris
Shape & HBR
Box + 1 Pan, 0.4 m
Radar Cross Section
0.038 m², Medium (>0.1 m² and < 1m²)

Expand to show TLE details & history

TLE from 13 hours ago
0 UKUBE 1
1 40074U 14037F   25186.41859789  .00006592  00000-0  45974-3 0  9997
2 40074  98.3943 150.9903 0000675 143.8075 216.3195 15.05781282596237
Epoch: 2025-07-05T10:02Z
TLE epoch observation values (Epoch: 2025-07-05T10:02:46.857Z)
Latitude
-0.00006°
Longitude
76.63815°
Altitude
552.526 km
Speed
7.585 km/s
True Right ascension
10h 03m 57s
True Declination
0° 00' 00"
Sunlit
Object was in daylight at epoch
Visualization orbit readout
Latitude
58.22001°
Longitude
63.52566°
Altitude
558.854 km
Speed
7.588 km/s
Apparent Right ascension
02h 02m 27s
Apparent Declination
37° 33' 49"
Sunlit
Object is in daylight
Visualization observer readout
Local Sidereal Time
11:00:16
Azimuth
325.518° NNW
Elevation
-1.984°
Doppler factor
1
Orbital elements
Apogee altitude
546.605 km
Perigee altitude
545.671 km
Semi-major axis
6,924.275 km
Eccentricity
0.00007
Inclination
98.3943°
RAAN
150.9903°
Arg. of periapsis
143.8075°
True anomaly
Unknown
Mean anomaly
216.3195°
Eccentric anomaly
Unknown
Mean motion
3.76688 °/min
Orbital period
95.57 mins
BSTAR
0.00045974
Loading maneuver chart data...
Loading SW <> Apogee altitude chart data...
Loading historical data...
Loading historical data...
Loading historical data...
Loading historical data...
Loading historical data...
Loading historical data...
Loading historical data...

UKUBE 1 Visibility forecast

Observer location: undefined°, undefined°

Span
Click to sort rows by Start time (UTC) header in descending order
Start Az.
Max El. time (UTC)
Max El. Az.
Max El.
End time (UTC)
End Az.
7 mins2025-07-06 10:31:59.186Z15.556° NNE2025-07-06 10:34:59.186Z46.995° ENE44.156°2025-07-06 10:38:59.186Z191.385° SSW
5 mins2025-07-06 21:16:59.186Z132.807° SE2025-07-06 21:18:59.186Z72.528° E35.459°2025-07-06 21:21:59.186Z3.46° NNE
|